Flag for Poland Weather past 2 weeks in Zabrze, Poland

Now
82 °F

Sunny.


Feels Like: 82 °F
Forecast: 55 / 71 °F
Wind: 15 mph from Southwest

Location: Katowice Airport

Current Time: Sep 1, 2015 at 10:19:23 AM

Latest Report: Sep 1, 2015 at 10:00 AM


Visibility: 10 mi

Pressure: 29.80 "Hg

Humidity: 40%

Dew point: 55 °F

Location of ZabrzeLocation

Historic Weather in Zabrze — Graph

°F

Zabrze temperature yesterday

Maximum temperature yesterday: 95 °F (at 4:00 PM)
Minimum temperature yesterday: 64 °F (at 2:00 AM)
Average temperature yesterday: 79 °F

Past Weeks' High & Low Weather Summary

 TemperatureHumidityPressure
High95 °F (Aug 31, 4:00 PM)100% (Aug 26, 2:00 AM)30.30 "Hg (Aug 26, 2:00 AM)
Low46 °F (Aug 22, 6:00 AM)24% (Aug 31, 1:30 PM)29.80 "Hg (Aug 17, 9:00 AM)
Average68 °F60%30.07 "Hg
* Reported Aug 17 9:00 AM — Sep 1 9:30 AM, Zabrze, Weather by CustomWeather, © 2015

Note: Actual official high and low records may vary slightly from our data, if they occured in-between our weather recording intervals... More about our weather records

Advertising

Zabrze weather history for previous 24 hours

 ConditionsComfort  
Time TempWeatherWind HumidityBarometerVisibility
9:30 AM
Tue, Sep 1
81 °FSunny.12 mph42%29.80 "Hg10 mi
9:00 AM79 °FPassing clouds.9 mph45%29.80 "HgN/A
8:30 AM77 °FSunny.8 mph47%29.83 "Hg10 mi
8:00 AM75 °FSunny.9 mph50%29.83 "Hg10 mi
7:30 AM73 °FPassing clouds.6 mph53%29.83 "HgN/A
7:00 AM72 °FSunny.8 mph57%29.83 "Hg10 mi
5:30 AM72 °FClear.8 mph57%29.83 "Hg10 mi
5:00 AM72 °FClear.8 mph57%29.86 "Hg10 mi
4:30 AM75 °FClear.12 mph50%29.86 "Hg10 mi
4:00 AM70 °FPassing clouds.7 mph60%29.86 "HgN/A
3:30 AM70 °FClear.7 mph64%29.86 "Hg10 mi
3:00 AM68 °FClear.2 mph69%29.86 "Hg10 mi
2:30 AM68 °FPassing clouds.3 mph69%29.86 "HgN/A
2:00 AM70 °FPassing clouds.3 mph64%29.89 "HgN/A
1:30 AM73 °FClear.7 mph57%29.89 "Hg10 mi
1:00 AM75 °FClear.8 mph54%29.89 "Hg10 mi
11:30 PM
Mon, Aug 31
68 °FPassing clouds.3 mph69%29.92 "HgN/A
11:00 PM68 °FClear.5 mph69%29.92 "Hg10 mi
10:30 PM70 °FClear.10 mph64%29.92 "Hg10 mi
10:00 PM72 °FClear.2 mph61%29.92 "Hg10 mi
9:30 PM77 °FPassing clouds.5 mph47%29.92 "HgN/A
9:00 PM77 °FClear.1 mph47%29.92 "Hg10 mi
8:30 PM82 °FSunny.7 mph40%29.92 "Hg10 mi
8:00 PM84 °FSunny.5 mph35%29.92 "Hg10 mi
7:30 PM84 °FSunny.8 mph35%29.92 "Hg10 mi
7:00 PM88 °FSunny.10 mph31%29.92 "Hg10 mi
6:30 PM90 °FSunny.9 mph29%29.92 "Hg10 mi
6:00 PM91 °FSunny.12 mph28%29.92 "Hg10 mi
5:30 PM93 °FSunny.10 mph26%29.92 "Hg10 mi
5:00 PM93 °FSunny.14 mph26%29.92 "Hg10 mi
4:30 PM93 °FPassing clouds.12 mph26%29.95 "HgN/A
4:00 PM95 °FPassing clouds.12 mph25%29.95 "HgN/A
3:30 PM93 °FSunny.16 mph26%29.95 "Hg10 mi
3:00 PM93 °FPassing clouds.9 mph28%29.95 "HgN/A
2:30 PM93 °FPassing clouds.10 mph28%29.98 "HgN/A
2:00 PM93 °FPassing clouds.9 mph26%29.98 "HgN/A
1:30 PM93 °FPassing clouds.14 mph24%29.98 "HgN/A
1:00 PM91 °FPassing clouds.14 mph28%30.01 "HgN/A
12:30 PM91 °FPassing clouds.13 mph30%30.01 "HgN/A
12:00 PM90 °FPassing clouds.14 mph33%30.01 "HgN/A
11:30 AM90 °FPassing clouds.14 mph31%30.04 "HgN/A
11:00 AM88 °FPassing clouds.10 mph35%30.04 "HgN/A
10:30 AM86 °FSunny.10 mph38%30.04 "Hg10 mi
10:00 AM84 °FSunny.9 mph43%30.04 "Hg10 mi
Weather by CustomWeather, © 2015

See weather overviewHow to use our weather pages